• En España
  • Lista de países
  • Para 7 días
  • Temperatura del agua
  • Mapa Satelital
  • El tiempo en el mapa
  • Informadores
  • user-avatar
    Iniciar sesión

    Tiempo cada hora Fier

    Hoy, 21 Enero, Domingo

    Tiempo Temperatura Precipitaciones Viento Presión Humedad
    00:00 +9°C° 0,1 mm 2 mps 757 mmHg 92%
    01:00 +9°C° 0,1 mm 2 mps 757 mmHg 92%
    02:00 +9°C° 0 mm 2 mps 757 mmHg 91%
    03:00 +9°C° 0 mm 3 mps 756 mmHg 91%
    04:00 +9°C° 0 mm 3 mps 756 mmHg 90%
    05:00 +8°C° 0,2 mm 4 mps 755 mmHg 90%
    06:00 +8°C° 0,2 mm 4 mps 755 mmHg 89%
    07:00 +8°C° 0,2 mm 4 mps 755 mmHg 88%
    08:00 +9°C° 0,2 mm 5 mps 754 mmHg 85%
    09:00 +10°C° 0,2 mm 5 mps 754 mmHg 81%
    10:00 +12°C° 0,2 mm 5 mps 753 mmHg 78%
    11:00 +13°C° 0,6 mm 6 mps 753 mmHg 77%
    12:00 +13°C° 0,6 mm 6 mps 752 mmHg 75%
    13:00 +13°C° 0,6 mm 6 mps 751 mmHg 74%
    14:00 +11°C° 2,7 mm 6 mps 751 mmHg 81%
    15:00 +10°C° 2,7 mm 5 mps 750 mmHg 88%
    16:00 +9°C° 2,7 mm 5 mps 750 mmHg 95%
    17:00 +9°C° 1,4 mm 5 mps 750 mmHg 94%
    18:00 +9°C° 1,4 mm 6 mps 750 mmHg 94%
    19:00 +9°C° 1,4 mm 6 mps 750 mmHg 93%
    20:00 +9°C° 0,4 mm 6 mps 750 mmHg 93%
    21:00 +9°C° 0,4 mm 6 mps 750 mmHg 93%
    22:00 +9°C° 0,4 mm 6 mps 750 mmHg 94%
    23:00 +9°C° 0,3 mm 7 mps 751 mmHg 93%

    Mañana, 22 Enero, Lunes

    Tiempo Temperatura Precipitaciones Viento Presión Humedad
    00:00 +8°C° 0,3 mm 7 mps 751 mmHg 93%
    01:00 +8°C° 0,3 mm 7 mps 752 mmHg 93%
    02:00 +6°C° 0,1 mm 7 mps 752 mmHg 91%
    03:00 +5°C° 0,1 mm 7 mps 753 mmHg 90%
    04:00 +5°C° 0,1 mm 7 mps 753 mmHg 88%
    05:00 +4°C° 0 mm 7 mps 754 mmHg 87%
    06:00 +4°C° 0 mm 7 mps 755 mmHg 86%
    07:00 +3°C° 0 mm 7 mps 755 mmHg 85%
    08:00 +4°C° 0 mm 7 mps 756 mmHg 79%
    09:00 +5°C° 0 mm 7 mps 756 mmHg 72%
    10:00 +6°C° 0 mm 7 mps 757 mmHg 66%
    11:00 +6°C° 0 mm 7 mps 757 mmHg 63%
    12:00 +8°C° 0 mm 7 mps 757 mmHg 60%
    13:00 +8°C° 0 mm 7 mps 757 mmHg 57%
    14:00 +8°C° 0 mm 6 mps 757 mmHg 58%
    15:00 +7°C° 0 mm 6 mps 757 mmHg 60%
    16:00 +7°C° 0 mm 5 mps 758 mmHg 61%
    17:00 +6°C° 0 mm 5 mps 758 mmHg 65%
    18:00 +5°C° 0 mm 4 mps 759 mmHg 69%
    19:00 +4°C° 0 mm 4 mps 759 mmHg 72%
    20:00 +4°C° 0 mm 4 mps 760 mmHg 72%
    21:00 +3°C° 0 mm 4 mps 760 mmHg 71%
    22:00 +3°C° 0 mm 3 mps 761 mmHg 70%
    23:00 +3°C° 0 mm 3 mps 761 mmHg 69%

    Pasado mañana, 23 Enero, Martes

    Tiempo Temperatura Precipitaciones Viento Presión Humedad
    00:00 +3°C° 0 mm 3 mps 761 mmHg 67%
    01:00 +3°C° 0 mm 3 mps 761 mmHg 66%
    02:00 +4°C° 0 mm 2 mps 761 mmHg 65%
    03:00 +4°C° 0 mm 2 mps 761 mmHg 64%
    04:00 +4°C° 0 mm 2 mps 761 mmHg 63%
    05:00 +4°C° 0 mm 2 mps 761 mmHg 63%
    06:00 +5°C° 0 mm 2 mps 762 mmHg 62%
    07:00 +5°C° 0 mm 2 mps 762 mmHg 62%
    08:00 +6°C° 0 mm 2 mps 763 mmHg 58%
    09:00 +8°C° 0 mm 3 mps 763 mmHg 54%
    10:00 +9°C° 0 mm 3 mps 763 mmHg 50%
    11:00 +10°C° 0 mm 3 mps 763 mmHg 47%
    12:00 +11°C° 0 mm 3 mps 763 mmHg 45%
    13:00 +12°C° 0 mm 3 mps 763 mmHg 43%
    14:00 +11°C° 0 mm 3 mps 763 mmHg 47%
    15:00 +11°C° 0 mm 3 mps 764 mmHg 52%
    16:00 +10°C° 0 mm 3 mps 764 mmHg 56%
    17:00 +8°C° 0 mm 4 mps 765 mmHg 58%
    18:00 +7°C° 0 mm 4 mps 765 mmHg 60%
    19:00 +5°C° 0 mm 4 mps 766 mmHg 62%
    20:00 +5°C° 0 mm 4 mps 766 mmHg 62%
    21:00 +5°C° 0 mm 4 mps 767 mmHg 63%
    22:00 +4°C° 0 mm 4 mps 767 mmHg 63%
    23:00 +4°C° 0 mm 4 mps 768 mmHg 62%

    24 Enero, Miércoles

    Tiempo Temperatura Precipitaciones Viento Presión Humedad
    00:00 +4°C° 0 mm 4 mps 768 mmHg 62%
    01:00 +3°C° 0 mm 4 mps 768 mmHg 61%
    02:00 +3°C° 0 mm 4 mps 768 mmHg 59%
    03:00 +3°C° 0 mm 4 mps 769 mmHg 58%
    04:00 +3°C° 0 mm 4 mps 769 mmHg 56%
    05:00 +3°C° 0 mm 4 mps 769 mmHg 55%
    06:00 +3°C° 0 mm 4 mps 769 mmHg 53%
    07:00 +2°C° 0 mm 3 mps 770 mmHg 52%
    08:00 +4°C° 0 mm 3 mps 770 mmHg 47%
    09:00 +7°C° 0 mm 3 mps 770 mmHg 42%
    10:00 +8°C° 0 mm 3 mps 771 mmHg 37%
    11:00 +9°C° 0 mm 2 mps 770 mmHg 35%
    12:00 +10°C° 0 mm 2 mps 770 mmHg 33%
    13:00 +12°C° 0 mm 2 mps 770 mmHg 31%
    14:00 +10°C° 0 mm 2 mps 770 mmHg 35%
    15:00 +10°C° 0 mm 2 mps 770 mmHg 40%
    16:00 +9°C° 0 mm 2 mps 770 mmHg 45%
    17:00 +8°C° 0 mm 2 mps 770 mmHg 47%
    18:00 +7°C° 0 mm 3 mps 770 mmHg 50%
    19:00 +5°C° 0 mm 3 mps 770 mmHg 52%
    20:00 +4°C° 0 mm 3 mps 770 mmHg 52%
    21:00 +5°C° 0 mm 2 mps 770 mmHg 53%
    22:00 +5°C° 0 mm 2 mps 770 mmHg 54%
    23:00 +4°C° 0 mm 2 mps 770 mmHg 53%

    25 Enero, Jueves

    Tiempo Temperatura Precipitaciones Viento Presión Humedad
    00:00 +4°C° 0 mm 2 mps 770 mmHg 53%
    01:00 +4°C° 0 mm 2 mps 770 mmHg 52%
    02:00 +4°C° 0 mm 2 mps 770 mmHg 51%
    03:00 +4°C° 0 mm 2 mps 769 mmHg 50%
    04:00 +4°C° 0 mm 2 mps 769 mmHg 49%
    05:00 +4°C° 0 mm 2 mps 769 mmHg 48%
    06:00 +4°C° 0 mm 2 mps 769 mmHg 47%
    07:00 +4°C° 0 mm 2 mps 769 mmHg 45%
    08:00 +6°C° 0 mm 2 mps 769 mmHg 41%
    09:00 +9°C° 0 mm 1 mps 769 mmHg 37%
    10:00 +10°C° 0 mm 1 mps 768 mmHg 33%
    11:00 +10°C° 0 mm 2 mps 768 mmHg 32%
    12:00 +12°C° 0 mm 2 mps 767 mmHg 32%
    13:00 +13°C° 0 mm 2 mps 767 mmHg 32%
    14:00 +12°C° 0 mm 2 mps 766 mmHg 38%
    15:00 +10°C° 0 mm 3 mps 766 mmHg 43%
    16:00 +9°C° 0 mm 3 mps 766 mmHg 49%
    17:00 +8°C° 0 mm 2 mps 766 mmHg 51%
    18:00 +7°C° 0 mm 2 mps 766 mmHg 52%
    19:00 +6°C° 0 mm 2 mps 766 mmHg 53%
    20:00 +6°C° 0 mm 2 mps 766 mmHg 52%
    21:00 +5°C° 0 mm 2 mps 767 mmHg 51%
    22:00 +5°C° 0 mm 2 mps 767 mmHg 49%
    23:00 +5°C° 0 mm 2 mps 767 mmHg 48%

    26 Enero, Viernes

    Tiempo Temperatura Precipitaciones Viento Presión Humedad
    00:00 +5°C° 0 mm 2 mps 767 mmHg 46%
    01:00 +4°C° 0 mm 2 mps 767 mmHg 45%
    02:00 +4°C° 0 mm 2 mps 767 mmHg 44%
    03:00 +4°C° 0 mm 2 mps 767 mmHg 43%
    04:00 +3°C° 0 mm 3 mps 767 mmHg 42%
    05:00 +3°C° 0 mm 3 mps 767 mmHg 41%
    06:00 +3°C° 0 mm 3 mps 767 mmHg 41%
    07:00 +3°C° 0 mm 3 mps 768 mmHg 40%
    08:00 +5°C° 0 mm 3 mps 768 mmHg 36%
    09:00 +7°C° 0 mm 3 mps 768 mmHg 33%
    10:00 +9°C° 0 mm 3 mps 768 mmHg 30%
    11:00 +10°C° 0 mm 3 mps 768 mmHg 30%
    12:00 +11°C° 0 mm 3 mps 768 mmHg 30%
    13:00 +12°C° 0 mm 3 mps 767 mmHg 30%
    14:00 +11°C° 0 mm 3 mps 767 mmHg 36%
    15:00 +10°C° 0 mm 3 mps 767 mmHg 41%
    16:00 +10°C° 0 mm 3 mps 767 mmHg 47%
    17:00 +9°C° 0 mm 2 mps 768 mmHg 50%
    18:00 +7°C° 0 mm 2 mps 768 mmHg 52%
    19:00 +6°C° 0 mm 2 mps 768 mmHg 54%
    20:00 +6°C° 0 mm 2 mps 769 mmHg 54%
    21:00 +6°C° 0 mm 2 mps 769 mmHg 53%
    22:00 +4°C° 0 mm 3 mps 769 mmHg 53%
    23:00 +4°C° 0 mm 3 mps 769 mmHg 52%
    Mostrar más